Terug naar catalogus

CZ-6A DEB

ActiefSSO
NORAD 55542·DEBRIS·🇨🇳 China

Gelanceerd Nov 11, 2022 vanaf Taiyuan Satellite Launch Center

Loading…

Volgende Passages (komende 24 uur)

TLE

VersSource: Space-Track

Epoch: Sep 14, 2026, 00:06 UTC

1 55542U 22151YQ  26257.00441244  .00001190  00000-0  53182-3 0  9996
2 55542  98.7977 279.2671 0013513 346.2948  13.7862 14.24542937193453

Volg CZ-6A DEB in realtime met AllMySat

Download on the App Store